Home   Weather   West Kirby   Past weeks
Flag for United Kingdom

Past Weather in West Kirby, England, United Kingdom — Yesterday and Last 2 Weeks

Now
48 °F

Passing clouds.


Feels Like: 46 °F
Forecast: 54 / 49 °F
Wind: 6 mph from Southeast

Location: Liverpool Airport

Current Time: Oct 18, 2019 at 9:58:57 am

Latest Report: Oct 18, 2019 at 9:20 am


Visibility: N/A

Pressure: 29.36 "Hg

Humidity: 100%

Dew Point: 48 °F

Location of West KirbyLocation

Past Weather in West Kirby — Graph

°F

West Kirby Temperature Yesterday

Maximum temperature yesterday: 57 °F (at 2:50 pm)
Minimum temperature yesterday: 45 °F (at 7:20 am)
Average temperature yesterday: 50 °F

High & Low Weather Summary for the Past Weeks

 TemperatureHumidityPressure
High63 °F (Oct 4, 4:20 pm)100% (Oct 3, 8:50 am)30.07 "Hg (Oct 3, 8:50 am)
Low43 °F (Oct 3, 8:20 am)55% (Oct 8, 3:20 pm)29.36 "Hg (Oct 18, 7:20 am)
Average54 °F90%29.66 "Hg
* Reported Oct 3 8:20 am — Oct 18 8:20 am, West Kirby. Weather by CustomWeather, © 2019

Note: Actual official high and low records may vary slightly from our data, if they occured in-between our weather recording intervals... More about our weather records

Advertising

West Kirby Weather History for the Previous 24 Hours

Scroll right to see more
 ConditionsComfort  
Time TempWeatherWind HumidityBarometerVisibility
8:20 am
Fri, Oct 18
45 °FSunny.6 mph100%29.36 "Hg10 mi
7:50 am46 °FPassing clouds.6 mph100%29.39 "HgN/A
7:20 am46 °FClear.3 mph100%29.36 "Hg10 mi
6:50 am48 °FPassing clouds.8 mph100%29.39 "HgN/A
6:20 am48 °FPassing clouds.8 mph100%29.39 "HgN/A
5:50 am48 °FPassing clouds.7 mph100%29.39 "HgN/A
5:20 am48 °FPassing clouds.6 mph100%29.39 "HgN/A
4:50 am46 °FPassing clouds.3 mph100%29.39 "HgN/A
4:20 am48 °FPassing clouds.2 mph100%29.39 "HgN/A
3:50 am48 °FLight rain. Passing clouds.2 mph100%29.39 "HgN/A
3:20 am48 °FLight rain. Passing clouds.3 mph100%29.42 "HgN/A
2:50 am50 °FLight rain. Passing clouds.5 mph94%29.42 "HgN/A
2:20 am50 °FLight rain. Partly cloudy.8 mph94%29.42 "Hg6 mi
1:50 am50 °FRain. Partly cloudy.15 mph94%29.42 "HgN/A
1:20 am50 °FLight rain. Passing clouds.14 mph94%29.42 "HgN/A
12:50 am50 °FClear.13 mph94%29.42 "Hg10 mi
12:20 am50 °FClear.13 mph94%29.45 "Hg10 mi
11:50 pm
Thu, Oct 17
50 °FClear.15 mph94%29.45 "Hg10 mi
11:20 pm52 °FPassing clouds.14 mph88%29.45 "HgN/A
10:50 pm52 °FPassing clouds.10 mph88%29.47 "HgN/A
10:20 pm52 °FPassing clouds.9 mph88%29.47 "HgN/A
9:50 pm52 °FPassing clouds.7 mph94%29.47 "HgN/A
9:20 pm52 °FPassing clouds.14 mph94%29.47 "HgN/A
8:50 pm52 °FPassing clouds.10 mph94%29.47 "HgN/A
8:20 pm54 °FPassing clouds.9 mph88%29.47 "HgN/A
7:50 pm54 °FPassing clouds.8 mph88%29.47 "HgN/A
7:20 pm54 °FPassing clouds.10 mph88%29.47 "HgN/A
6:50 pm54 °FPassing clouds.12 mph88%29.47 "HgN/A
6:20 pm52 °FScattered showers. Passing clouds.7 mph88%29.50 "HgN/A
5:50 pm50 °FScattered showers. Scattered clouds.7 mph94%29.50 "HgN/A
5:20 pm52 °FBroken clouds.8 mph88%29.50 "HgN/A
3:50 pm57 °FScattered showers. Scattered clouds.15 mph72%29.50 "HgN/A
3:20 pm57 °FScattered showers. Scattered clouds.14 mph72%29.53 "HgN/A
2:50 pm57 °FScattered showers. Scattered clouds.12 mph72%29.53 "HgN/A
2:20 pm55 °FPassing clouds.13 mph77%29.53 "HgN/A
1:50 pm55 °FPassing clouds.13 mph77%29.56 "HgN/A
1:20 pm55 °FPassing clouds.13 mph77%29.56 "HgN/A
12:50 pm55 °FPassing clouds.10 mph82%29.59 "HgN/A
12:20 pm55 °FPassing clouds.12 mph82%29.59 "HgN/A
11:50 am55 °FSunny.10 mph82%29.59 "Hg10 mi
11:20 am52 °FPassing clouds.12 mph88%29.59 "HgN/A
10:50 am52 °FPassing clouds.9 mph88%29.62 "HgN/A
10:20 am50 °FSunny.13 mph88%29.62 "Hg10 mi
9:50 am48 °FSunny.8 mph100%29.62 "Hg10 mi
9:20 am46 °FPassing clouds.6 mph100%29.62 "HgN/A
Weather by CustomWeather, © 2019

See weather overview